Flag for Austria Weather past 2 weeks in Kapfenberg, Styria, Austria

Now
63 °F

Passing clouds.


Feels Like: 63 °F
Forecast: 58 / 85 °F
Wind: 1 mph from North

Location: Zeltweg

Current Time: Aug 30, 2015 at 2:22:57 AM

Latest Report: Aug 29, 2015 at 10:50 PM


Visibility: 12 mi

Pressure: 30.27 "Hg (28.53 "Hg at 504m altitude)

Humidity: 77%

Dew point: 55 °F

Location of KapfenbergLocation

Historic Weather in Kapfenberg — Graph

°F

Kapfenberg temperature yesterday

Maximum temperature yesterday: 90 °F (at 4:50 PM)
Minimum temperature yesterday: 55 °F (at 5:50 AM)
Average temperature yesterday: 75 °F

Past Weeks' High & Low Weather Summary

 TemperatureHumidityPressure
High90 °F (Aug 29, 4:50 PM)100% (Aug 17, 3:20 PM)30.33 "Hg (Aug 17, 3:20 PM)
Low48 °F (Aug 23, 6:50 AM)27% (Aug 29, 4:50 PM)29.77 "Hg (Aug 16, 3:50 PM)
Average65 °F70%30.07 "Hg
* Reported Aug 14 10:50 PM — Aug 29 10:50 PM, Kapfenberg, Weather by CustomWeather, © 2015

Note: Actual official high and low records may vary slightly from our data, if they occured in-between our weather recording intervals... More about our weather records

Advertising

Kapfenberg weather history for previous 24 hours

 ConditionsComfort  
Time TempWeatherWind HumidityBarometerVisibility
10:50 PM
Sat, Aug 29
63 °FPassing clouds.1 mph77%30.27 "Hg12 mi
9:50 PM66 °FPassing clouds.5 mph68%30.27 "Hg12 mi
8:50 PM72 °FPassing clouds.2 mph53%30.27 "Hg19 mi
7:50 PM77 °FPassing clouds.2 mph42%30.24 "Hg25 mi
6:50 PM84 °FPassing clouds.7 mph31%30.24 "Hg25 mi
5:50 PM88 °FPassing clouds.8 mph31%30.24 "Hg31 mi
5:20 PM88 °FPassing clouds.8 mph29%30.24 "Hg31 mi
4:50 PM90 °FPassing clouds.8 mph27%30.24 "Hg31 mi
4:20 PM88 °FPassing clouds.3 mph31%30.24 "Hg31 mi
3:50 PM88 °FPassing clouds.5 mph33%30.24 "Hg31 mi
3:20 PM88 °FPassing clouds.5 mph33%30.24 "Hg31 mi
2:50 PM88 °FPassing clouds.2 mph31%30.27 "Hg31 mi
2:20 PM86 °FPassing clouds.2 mph31%30.27 "Hg31 mi
1:50 PM84 °FPassing clouds.3 mph37%30.27 "Hg31 mi
12:50 PM81 °FPassing clouds.1 mph42%30.30 "Hg31 mi
11:50 AM77 °FPassing clouds.2 mph51%30.30 "Hg31 mi
11:20 AM73 °FPassing clouds.2 mph61%30.30 "Hg31 mi
10:50 AM72 °FPassing clouds.2 mph61%30.30 "Hg31 mi
9:50 AM68 °FPassing clouds.1 mph69%30.30 "Hg25 mi
9:20 AM66 °FPassing clouds.2 mph73%30.30 "Hg25 mi
8:50 AM63 °FPassing clouds.1 mph83%30.33 "Hg25 mi
7:50 AM59 °FPassing clouds.1 mph94%30.30 "Hg25 mi
7:20 AM59 °FPassing clouds.1 mph94%30.30 "Hg25 mi
6:50 AM55 °FPassing clouds.2 mph100%30.30 "Hg25 mi
5:50 AM55 °FFog.1 mph100%30.30 "Hg19 mi
Weather by CustomWeather, © 2015

See weather overviewHow to use our weather pages